Weather History for Jackson, MS

Change the Weather History Date:

Monday, November 21, 2011

  Actual Average Record
Temperature  
Mean Temperature 67 °F 54 °F  
Max Temperature 77 °F 66 °F 82 °F (1913)
Min Temperature 56 °F 42 °F 21 °F (1937)
Degree Days  
Heating Degree Days 0 12  
Month to date heating degree days 156 185  
Since 1 July heating degree days 290 292  
Cooling Degree Days 2 0  
Month to date cooling degree days 26 21  
Year to date cooling degree days 2669 2252  
Growing Degree Days 16 (Base 50)    
Moisture  
Dew Point 63 °F    
Average Humidity 82    
Maximum Humidity 100    
Minimum Humidity 64    
Precipitation  
Precipitation 0.00 in 0.17 in 2.57 in (1977)
Month to date precipitation 0.91 3.16  
Year to date precipitation 40.19 47.39  
Sea Level Pressure  
Sea Level Pressure 30.16 in    
Wind  
Wind Speed 4 mph (SSE)    
Max Wind Speed 14 mph    
Max Gust Speed 20 mph    
Visibility 6 miles    
Events Fog    
T = Trace of Precipitation, MM = Missing Value Source: NWS Daily Summary

Daily Weather History Graph

Daily Weather History Graph

Search for Another Location

Airport:

Trip Planner

Search our weather history database for the weather conditions in past years. The results will help you decide how hot, cold, wet, or windy it might be!

Date:

Astronomy

Nov. 21, 2011 Rise Set
Actual Time 6:34 AM CST 4:57 PM CST
Civil Twilight 6:08 AM CST 5:23 PM CST
Nautical Twilight 5:38 AM CST 5:53 PM CST
Astronomical Twilight 5:09 AM CST 6:22 PM CST
Moon 2:25 AM CST (11/21) 2:10 PM CST (11/21)
Length of Visible Light 11h 15m
Length of Day
10h 22m
Waning Crescent, 17% of the Moon is Illuminated
Nov 21
Waning Crescent
Nov 25
New
Dec 2
First Quarter
Dec 10
Full
Dec 17
Last Quarter

Hourly Weather History & Observations

Time (CST) Temp. Dew Point Humidity Pressure Visibility Wind Dir Wind Speed Gust Speed Precip Events Conditions
12:25 AM 62.6 °F 60.8 °F 94% 30.18 in 6.0 mi Calm Calm - N/A   Partly Cloudy
12:54 AM 61.0 °F 60.1 °F 97% 30.16 in 6.0 mi SSE 6.9 mph - N/A   Clear
1:54 AM 60.1 °F 59.0 °F 96% 30.16 in 6.0 mi Calm Calm - N/A   Clear
2:33 AM 57.2 °F 57.2 °F 100% 30.17 in 3.0 mi Calm Calm - N/A   Scattered Clouds
2:46 AM 57.2 °F 57.2 °F 100% 30.17 in 2.0 mi Calm Calm - N/A   Mostly Cloudy
2:54 AM 57.0 °F 57.0 °F 100% 30.17 in 0.8 mi Calm Calm - N/A   Mostly Cloudy
3:01 AM 57.2 °F 57.2 °F 100% 30.17 in 0.2 mi Calm Calm - N/A Fog Fog
3:54 AM 55.9 °F 55.9 °F 100% 30.17 in 1.5 mi Calm Calm - N/A   Scattered Clouds
4:01 AM 55.4 °F 55.4 °F 100% 30.17 in 2.0 mi Calm Calm - N/A   Scattered Clouds
4:32 AM 62.6 °F 60.8 °F 94% 30.19 in 4.0 mi Calm Calm - N/A   Scattered Clouds
4:54 AM 62.1 °F 61.0 °F 96% 30.19 in 4.0 mi ESE 3.5 mph - N/A   Scattered Clouds
5:03 AM 62.6 °F 62.6 °F 100% 30.20 in 2.5 mi Calm Calm - N/A   Mostly Cloudy
5:14 AM 62.6 °F 62.6 °F 100% 30.21 in 1.2 mi Calm Calm - N/A   Overcast
5:54 AM 63.0 °F 62.1 °F 97% 30.21 in 1.5 mi Calm Calm - 0.00 in   Light Drizzle
6:30 AM 62.6 °F 62.6 °F 100% 30.23 in 0.5 mi Calm Calm - 0.00 in   Overcast
6:54 AM 63.0 °F 62.1 °F 97% 30.23 in 0.5 mi Calm Calm - 0.00 in   Overcast
7:54 AM 64.0 °F 63.0 °F 96% 30.24 in 0.5 mi Calm Calm - N/A   Overcast
8:16 AM 64.4 °F 64.4 °F 100% 30.25 in 0.5 mi Calm Calm - N/A   Overcast
8:43 AM 66.2 °F 64.4 °F 94% 30.25 in 2.0 mi Calm Calm - N/A   Overcast
8:54 AM 66.9 °F 64.9 °F 93% 30.24 in 2.0 mi Calm Calm - N/A   Overcast
9:12 AM 68.0 °F 66.2 °F 94% 30.25 in 3.0 mi Calm Calm - N/A   Overcast
9:54 AM 70.0 °F 66.9 °F 90% 30.24 in 10.0 mi Variable 3.5 mph - N/A   Overcast
10:27 AM 71.6 °F 66.2 °F 83% 30.23 in 10.0 mi South 4.6 mph - N/A   Overcast
10:54 AM 72.0 °F 66.0 °F 81% 30.22 in 10.0 mi SW 5.8 mph - N/A   Overcast
11:17 AM 73.4 °F 64.4 °F 73% 30.22 in 10.0 mi Variable 4.6 mph - N/A   Overcast
11:54 AM 73.0 °F 64.9 °F 76% 30.19 in 10.0 mi Calm Calm - N/A   Overcast
12:15 PM 73.4 °F 64.4 °F 73% 30.18 in 10.0 mi SSW 4.6 mph - N/A   Overcast
12:54 PM 73.0 °F 64.9 °F 76% 30.15 in 10.0 mi Variable 3.5 mph - N/A   Overcast
1:54 PM 73.9 °F 64.9 °F 73% 30.12 in 10.0 mi SSW 4.6 mph - N/A   Partly Cloudy
2:54 PM 77.0 °F 64.0 °F 64% 30.09 in 10.0 mi SSE 10.4 mph - N/A   Partly Cloudy
3:54 PM 75.0 °F 63.0 °F 66% 30.08 in 10.0 mi South 5.8 mph - N/A   Partly Cloudy
4:54 PM 70.0 °F 63.0 °F 78% 30.08 in 10.0 mi SSE 5.8 mph - N/A   Partly Cloudy
5:54 PM 66.9 °F 63.0 °F 87% 30.08 in 10.0 mi SSE 3.5 mph - N/A   Clear
6:54 PM 63.0 °F 62.1 °F 97% 30.08 in 10.0 mi Calm Calm - N/A   Clear
7:54 PM 62.1 °F 61.0 °F 96% 30.06 in 10.0 mi SSE 4.6 mph - N/A   Partly Cloudy
8:54 PM 64.9 °F 63.0 °F 93% 30.04 in 10.0 mi SE 8.1 mph - N/A   Partly Cloudy
9:54 PM 66.0 °F 64.0 °F 93% 30.05 in 10.0 mi SSE 8.1 mph - N/A   Partly Cloudy
10:54 PM 66.9 °F 64.9 °F 93% 30.04 in 7.0 mi SSE 9.2 mph - N/A   Scattered Clouds
11:09 PM 68.0 °F 66.2 °F 94% 30.05 in 7.0 mi SSE 12.7 mph 17.3 mph N/A   Mostly Cloudy
11:40 PM 69.8 °F 66.2 °F 88% 30.05 in 7.0 mi SSE 6.9 mph - N/A   Overcast
11:49 PM 69.8 °F 66.2 °F 88% 30.04 in 7.0 mi SSE 5.8 mph - N/A   Overcast
11:54 PM 69.1 °F 66.0 °F 90% 30.03 in 7.0 mi SSE 6.9 mph - N/A   Overcast